Regional Weather Roundup
Issued by NWS

Home | Current Version | Previous Version | Graphics & Text | Print | Product List | Glossary On
Versions: 1 2 3 4 5 6 7 8 9 10 11 12 13 14 15 16 17 18 19 20 21 22 23 24 25 26 27 28 29 30 31 32 33 34 35 36 37 38 39 40 41 42 43 44 45 46 47 48 49 50
000
ASUS43 KFSD 151810
RWRSD

WEATHER ROUNDUP FOR SOUTH DAKOTA
NATIONAL WEATHER SERVICE SIOUX FALLS SD
100 PM CDT TUE APR 15 2014

NOTE: "FAIR" INDICATES FEW OR NO CLOUDS BELOW 12,000 FEET WITH NO
SIGNIFICANT WEATHER AND/OR OBSTRUCTIONS TO VISIBILITY.


SDZ001>005-009-010-012>017-151900-
NORTHWEST AND NORTH CENTRAL SOUTH DAKOTA

CITY           SKY/WX    TMP DP  RH WIND       PRES   REMARKS
BUFFALO          N/A     56  20  24 SW8       29.59F
MOBRIDGE       PTSUNNY   42  18  37 SE26G32   29.81F
$$

SDZ012>016-024>037-041>051-057-063-072>074-151900-
SOUTHWEST AND SOUTH CENTRAL SOUTH DAKOTA

CITY           SKY/WX    TMP DP  RH WIND       PRES   REMARKS
RAPID CTY ARPT CLOUDY    57  23  26 SE9       29.69F
PIERRE         PTSUNNY   48  20  32 SE21G31   29.79F
CUSTER         CLOUDY    48  13  24 W9G17     29.74F
ELLSWORTH AFB  MOSUNNY   57  23  26 VRB2      29.68F
PHILIP         PTSUNNY   55  25  31 S9        29.73
PINE RIDGE     PTSUNNY   58  23  26 W15G23    29.75F
SPEARFISH      FAIR      57  16  19 W20G26    29.69F
WINNER         FAIR      55  21  26 S17       29.82F
$$

SDZ004>011-016>023-039-040-151900-
NORTHEAST SOUTH DAKOTA

CITY           SKY/WX    TMP DP  RH WIND       PRES   REMARKS
ABERDEEN       MOSUNNY   37  12  35 SE16G24   29.97F
WATERTOWN      PTSUNNY   34  13  41 SE9G22    29.99F WCI  27
SISSETON         N/A     32  16  51 S14       30.04F WCI  22
$$

SDZ017-020-022-023-036>040-048>070-151900-
SOUTHEAST SOUTH DAKOTA

CITY           SKY/WX    TMP DP  RH WIND       PRES   REMARKS
SIOUX FALLS    MOSUNNY   39  14  36 S14G21    30.04F
HURON          SUNNY     41  15  35 S20G28    29.95F
CHAMBERLAIN      N/A     49  19  30 SE24G31   29.87F
MITCHELL       SUNNY     42  18  37 S22G30    29.98F
YANKTON        SUNNY     43  18  36 SE18G26   30.03F
$$

ABBREVIATIONS USED IN REMARKS
   TC - TEMPERATURE IN CELSIUS
  WCI - WIND CHILL INDEX
   HX - HEAT INDEX
  VSB - VISIBILITY




USA.gov is the U.S. government's official web portal to all federal, state and local government web resources and services.